Weather History for KTQE - March, 2014

Change the Weather History Date:

Monday, March 31, 2014

  Actual Average Record
Temperature  
Mean Temperature 51 °F -  
Max Temperature 75 °F 58 °F 91 °F (2012)
Min Temperature 27 °F 33 °F 9 °F (1987)
Degree Days  
Heating Degree Days 14    
Growing Degree Days 1 (Base 50)    
Moisture  
Dew Point 28 °F    
Average Humidity 48    
Maximum Humidity 59    
Minimum Humidity 25    
Precipitation  
Precipitation 0.00 in - - ()
Sea Level Pressure  
Sea Level Pressure 29.58 in    
Wind  
Wind Speed 24 mph (SW)    
Max Wind Speed 39 mph    
Max Gust Speed 47 mph    
Visibility 10 miles    
Events      
Averages and records for this station are not official NWS values.
T = Trace of Precipitation, MM = Missing Value Source: NWS Daily Summary

Daily Weather History Graph

Daily Weather History Graph

Search for Another Location

Airport or City:

Trip Planner

Search our weather history database for the weather conditions in past years. The results will help you decide how hot, cold, wet, or windy it might be!

Date:

Astronomy

Mar. 31, 2014 Rise Set
Actual Time 7:09 AM CDT 7:49 PM CDT
Civil Twilight 6:41 AM CDT 8:17 PM CDT
Nautical Twilight 6:08 AM CDT 8:50 PM CDT
Astronomical Twilight 5:33 AM CDT 9:24 PM CDT
Moon 7:32 AM CDT (3/31) 9:10 PM CDT (3/31)
Length of Visible Light 13h 36m
Length of Day
12h 39m
New Moon, 1% of the Moon is Illuminated
Mar 31
New Moon
Apr 7
First Quarter
Apr 15
Full
Apr 22
Last Quarter
Apr 29
New

Hourly Weather History & Observations

Time (CDT) Temp. Windchill Dew Point Humidity Pressure Visibility Wind Dir Wind Speed Gust Speed Precip Events Conditions
12:54 AM 63.0 °F - 35.1 °F 35% 29.55 in 10.0 mi SSE 20.7 mph - N/A   Clear
1:54 AM 63.0 °F - 35.1 °F 35% 29.53 in 10.0 mi SSE 20.7 mph - N/A   Clear
2:54 AM 63.0 °F - 35.1 °F 35% 29.51 in 10.0 mi SSE 20.7 mph - N/A   Clear
3:54 AM 63.0 °F - 36.0 °F 37% 29.46 in 10.0 mi SSE 20.7 mph - N/A   Partly Cloudy
4:54 AM 59.0 °F - 37.0 °F 44% 29.45 in 10.0 mi SE 16.1 mph - N/A   Clear
5:54 AM 59.0 °F - 37.0 °F 44% 29.44 in 10.0 mi SSE 17.3 mph - N/A   Clear
6:54 AM 57.0 °F - 37.9 °F 49% 29.43 in 10.0 mi SE 16.1 mph - N/A   Clear
7:54 AM 57.0 °F - 39.0 °F 51% 29.39 in 10.0 mi SE 21.9 mph - N/A   Clear
8:54 AM 61.0 °F - 41.0 °F 48% 29.36 in 10.0 mi SE 20.7 mph 29.9 mph N/A   Clear
9:54 AM 68.0 °F - 42.1 °F 39% 29.34 in 10.0 mi SSE 29.9 mph 36.8 mph N/A   Clear
10:54 AM 73.0 °F - 37.9 °F 28% 29.33 in 10.0 mi SSW 32.2 mph 41.4 mph N/A   Clear
11:54 AM 75.0 °F - 37.0 °F 25% 29.33 in 10.0 mi SW 23.0 mph 31.1 mph N/A   Clear
12:54 PM 62.1 °F - 36.0 °F 38% 29.39 in 10.0 mi WSW 33.4 mph 40.3 mph N/A   Clear
1:54 PM 55.9 °F - 33.1 °F 42% 29.45 in 10.0 mi West 33.4 mph 44.9 mph N/A   Clear
2:54 PM 48.9 °F - 28.9 °F 46% 29.52 in 10.0 mi West 35.7 mph 44.9 mph N/A   Partly Cloudy
3:09 PM 46.0 °F 35.5 °F 28.9 °F 51% 29.54 in 10.0 mi West 39.1 mph 47.2 mph N/A   Mostly Cloudy
3:54 PM 42.1 °F 31.0 °F 28.0 °F 58% 29.57 in 10.0 mi West 32.2 mph 44.9 mph N/A   Overcast
4:54 PM 36.0 °F 22.8 °F 23.0 °F 59% 29.65 in 10.0 mi West 31.1 mph 38.0 mph N/A   Overcast
5:29 PM 34.0 °F 19.9 °F 19.9 °F 56% 29.67 in 10.0 mi West 32.2 mph 40.3 mph N/A   Overcast
5:43 PM 33.1 °F 18.9 °F 19.9 °F 59% 29.69 in 10.0 mi West 31.1 mph 42.6 mph N/A   Overcast
5:54 PM 32.0 °F 17.4 °F 19.0 °F 59% 29.69 in 10.0 mi West 31.1 mph 41.4 mph N/A   Overcast
6:54 PM 30.0 °F 14.7 °F 17.1 °F 59% 29.75 in 10.0 mi West 31.1 mph 38.0 mph N/A   Overcast
7:04 PM 30.0 °F 14.2 °F 16.0 °F 56% 29.76 in 10.0 mi West 33.4 mph 38.0 mph N/A   Overcast
7:54 PM 30.0 °F 16.6 °F 15.1 °F 54% 29.78 in 10.0 mi West 23.0 mph 33.4 mph N/A   Overcast
8:54 PM 28.0 °F 13.6 °F 12.9 °F 53% 29.82 in 10.0 mi WNW 24.2 mph 39.1 mph N/A   Overcast
9:54 PM 27.0 °F 12.2 °F 14.0 °F 58% 29.85 in 10.0 mi WNW 24.2 mph 40.3 mph N/A   Overcast
10:54 PM 27.0 °F 12.5 °F 14.0 °F 58% 29.88 in 10.0 mi WNW 23.0 mph 39.1 mph N/A   Overcast
11:10 PM 27.0 °F 10.8 °F 14.0 °F 58% 29.89 in 10.0 mi WNW 29.9 mph 39.1 mph N/A   Overcast
11:54 PM 28.0 °F 13.9 °F 15.1 °F 58% 29.91 in 10.0 mi WNW 23.0 mph 35.7 mph N/A   Overcast